This demonstration page uses our WeatherBlox Daily Observations layout. Learn more.

Left ArrowRight Arrow

Hourly Observations for August 31, 2022

Temp ( °F °C ) Dew Point ( °F °C ) Humidity (%) Winds ( mph kmh ) Pressure ( in mb ) Visibility ( mi km ) Precip ( " mm )
12:52 am 00:52 Mostly Clear 63 17.2 61 16.1 93 93 Calm 30.11 1020 10 16 0.00 0.00
1:52 am 01:52 Clear 65 18.3 57 13.9 76 76 ESE 3 6 30.10 1019 10 16 0.00 0.00
2:52 am 02:52 Clear 61 16.1 59 15 93 93 Calm 30.11 1020 10 16 0.00 0.00
3:52 am 03:52 Clear 62 16.7 57 13.9 84 84 ESE 5 7 30.11 1020 10 16 0.00 0.00
4:52 am 04:52 Clear 62 16.7 58 14.4 86 86 S 3 6 30.11 1020 10 16 0.00 0.00
5:52 am 05:52 Clear 62 16.7 58 14.4 86 86 Calm 30.11 1020 10 16 0.00 0.00
6:52 am 06:52 Sunny 61 16.1 57 13.9 87 87 SE 5 7 30.12 1020 10 16 0.00 0.00
7:52 am 07:52 Sunny 63 17.2 59 15 87 87 SE 5 7 30.12 1020 10 16 0.00 0.00
8:52 am 08:52 Sunny 68 20 60 15.6 76 76 SSE 7 11 30.12 1020 10 16 0.00 0.00
9:52 am 09:52 Sunny 73 22.8 61 16.1 66 66 SSE 8 13 30.09 1019 10 16 0.00 0.00
10:52 am 10:52 Sunny 78 25.6 60 15.6 54 54 S 8 13 30.10 1019 10 16 0.00 0.00
11:52 am 11:52 Sunny 83 28.3 60 15.6 46 46 S 13 20 30.08 1019 10 16 0.00 0.00
12:52 pm 12:52 Sunny 85 29.4 58 14.4 40 40 S 13 20 30.06 1018 10 16 0.00 0.00
1:52 pm 13:52 Sunny 87 30.6 60 15.6 40 40 S 15 24 30.03 1017 10 16 0.00 0.00
2:52 pm 14:52 Sunny 89 31.7 60 15.6 38 38 S 14 22 30.01 1016 10 16 0.00 0.00
3:52 pm 15:52 Mostly Sunny 90 32.2 62 16.7 40 40 SSE 16 26 29.98 1015 10 16 0.00 0.00
4:52 pm 16:52 Mostly Sunny 90 32.2 61 16.1 38 38 S 16 26 29.96 1014 10 16 0.00 0.00
5:52 pm 17:52 Partly Cloudy 89 31.7 61 16.1 39 39 SSE 20 31 29.95 1014 10 16 0.00 0.00
6:52 pm 18:52 Mostly Cloudy 87 30.6 62 16.7 43 43 S 13 20 29.95 1014 10 16 0.00 0.00
7:52 pm 19:52 Mostly Cloudy 84 28.9 61 16.1 46 46 SSE 10 17 29.94 1014 10 16 0.00 0.00
8:52 pm 20:52 Mostly Cloudy 81 27.2 63 17.2 54 54 SSW 3 6 29.96 1015 10 16 0.00 0.00
9:52 pm 21:52 Mostly Cloudy 78 25.6 64 17.8 62 62 SE 8 13 29.97 1015 10 16 0.00 0.00
10:52 pm 22:52 Mostly Cloudy 76 24.4 64 17.8 67 67 SE 7 11 29.97 1015 10 16 0.00 0.00
11:52 pm 23:52 Partly Cloudy 74 23.3 64 17.8 71 71 S 9 15 29.96 1014 10 16 0.00 0.00

Powered by AerisWeather